This demonstration page uses our WeatherBlox Daily Observations layout. Learn more.

Left ArrowRight Arrow

Hourly Observations for November 13, 2021

Temp ( °F °C ) Dew Point ( °F °C ) Humidity (%) Winds ( mph kmh ) Pressure ( in mb ) Visibility ( mi km ) Precip ( " mm )
12:15 am 00:15 Clear 20 -6.4 15 -9.6 78 78 W 8 13 30.36 1028 10 16 0.00 0.00
12:35 am 00:35 Clear 23 -4.8 17 -8.6 75 75 W 8 13 30.36 1028 10 16 0.00 0.00
12:55 am 00:55 Clear 24 -4.3 16 -8.7 72 72 W 8 13 30.35 1028 10 16 0.00 0.00
1:15 am 01:15 Clear 24 -4.7 16 -8.7 74 74 WNW 5 7 30.35 1028 10 16 0.00 0.00
1:35 am 01:35 Clear 22 -5.5 16 -8.7 78 78 Calm 30.33 1027 10 16 0.00 0.00
1:55 am 01:55 Clear 22 -5.4 17 -8.6 78 78 Calm 30.33 1027 10 16 0.00 0.00
2:15 am 02:15 Clear 23 -5.2 17 -8.5 78 78 NNW 3 6 30.32 1027 10 16 0.00 0.00
2:35 am 02:35 Clear 22 -5.5 17 -8.1 82 82 Calm 30.30 1026 10 16 0.00 0.00
2:55 am 02:55 Clear 22 -5.7 18 -8 84 84 Calm 30.31 1026 10 16 0.00 0.00
3:15 am 03:15 Clear 23 -5.1 17 -8.5 77 77 E 3 6 30.29 1026 10 16 0.00 0.00
3:35 am 03:35 Clear 24 -4.6 17 -8.5 74 74 E 3 6 30.26 1025 10 16 0.00 0.00
3:55 am 03:55 Clear 24 -4.7 17 -8.6 74 74 Calm 30.26 1025 10 16 0.00 0.00
4:15 am 04:15 Clear 23 -4.8 17 -8.5 76 76 Calm 30.26 1025 10 16 0.00 0.00
4:35 am 04:35 Clear 23 -4.8 17 -8.1 78 78 Calm 30.25 1024 10 16 0.00 0.00
4:55 am 04:55 Clear 23 -5 18 -7.9 80 80 S 3 6 30.24 1024 10 16 0.00 0.00
5:15 am 05:15 Clear 23 -5 19 -7.5 83 83 S 5 7 30.23 1024 10 16 0.00 0.00
5:35 am 05:35 Clear 25 -4.1 18 -7.6 77 77 S 3 6 30.22 1023 10 16 0.00 0.00
5:55 am 05:55 Clear 25 -3.8 18 -7.7 75 75 S 5 7 30.21 1023 10 16 0.00 0.00
6:15 am 06:15 Partly Cloudy 26 -3.3 17 -8.1 70 70 S 5 7 30.20 1023 10 16 0.00 0.00
6:35 am 06:35 Mostly Cloudy 27 -2.6 18 -7.6 69 69 SE 6 9 30.18 1022 10 16 0.00 0.00
6:55 am 06:55 Partly Cloudy 29 -1.7 17 -8.2 62 62 SE 7 11 30.16 1021 10 16 0.00 0.00
7:15 am 07:15 Clear 28 -2 17 -8.2 63 63 ESE 6 9 30.16 1021 10 16 0.00 0.00
7:35 am 07:35 Sunny 28 -2.3 17 -8.2 64 64 SE 5 7 30.16 1021 10 16 0.00 0.00
7:55 am 07:55 Sunny 29 -1.7 17 -8.1 62 62 SE 6 9 30.15 1021 10 16 0.00 0.00
8:15 am 08:15 Sunny 31 -0.5 18 -7.7 59 59 SSE 7 11 30.13 1020 10 16 0.00 0.00
8:35 am 08:35 Partly Cloudy 32 0 20 -6.5 62 62 S 5 7 30.12 1020 10 16 0.00 0.00
8:55 am 08:55 Mostly Cloudy 33 0.7 21 -6.1 61 61 Calm 30.10 1019 10 16 0.00 0.00
9:15 am 09:15 Partly Cloudy 37 2.9 20 -6.4 51 51 SSW 6 9 30.08 1019 10 16 0.00 0.00
9:35 am 09:35 Partly Cloudy 38 3.2 20 -6.4 50 50 SSW 7 11 30.07 1018 10 16 0.00 0.00
9:55 am 09:55 Partly Cloudy 39 3.9 20 -6.4 47 47 SW 8 13 30.05 1018 10 16 0.00 0.00
10:15 am 10:15 Partly Cloudy 40 4.6 20 -6.6 44 44 SW 12 19 30.04 1017 10 16 0.00 0.00
10:35 am 10:35 Partly Cloudy 40 4.7 21 -6.2 45 45 SSW 8 13 30.03 1017 10 16 0.00 0.00
10:55 am 10:55 Partly Cloudy 41 5 22 -5.7 46 46 SSW 6 9 30.03 1017 10 16 0.00 0.00
11:15 am 11:15 Mostly Cloudy 42 5.8 22 -5.4 45 45 WSW 3 6 30.01 1016 10 16 0.00 0.00
11:35 am 11:35 Mostly Cloudy 45 7 24 -4.4 44 44 WSW 6 9 29.99 1016 10 16 0.00 0.00
11:55 am 11:55 Cloudy 46 7.6 25 -4.1 44 44 WSW 6 9 29.98 1015 10 16 0.00 0.00
12:15 pm 12:15 Cloudy 48 8.8 26 -3.2 43 43 W 5 7 29.96 1015 10 16 0.00 0.00
12:35 pm 12:35 Mostly Cloudy 50 10 28 -2.4 42 42 WNW 5 7 29.95 1014 10 16 0.00 0.00
12:55 pm 12:55 Cloudy 51 10.3 29 -1.5 44 44 WNW 8 13 29.94 1014 10 16 0.00 0.00
1:15 pm 13:15 Cloudy 51 10.7 30 -1.2 44 44 WNW 8 13 29.93 1014 10 16 0.00 0.00
1:35 pm 13:35 Cloudy 53 11.5 31 -0.3 44 44 W 7 11 29.91 1013 10 16 0.00 0.00
1:55 pm 13:55 Cloudy 55 12.5 34 1.1 46 46 W 7 11 29.88 1012 10 16 0.00 0.00
2:15 pm 14:15 Mostly Cloudy 57 13.7 36 2.1 46 46 W 10 17 29.87 1011 10 16 0.00 0.00
2:35 pm 14:35 Mostly Cloudy 57 13.7 36 2.4 47 47 SW 5 7 29.83 1010 10 16 0.00 0.00
2:55 pm 14:55 Partly Cloudy 58 14.2 38 3.1 47 47 W 9 15 29.84 1011 10 16 0.00 0.00
3:15 pm 15:15 Sunny 57 14 38 3.5 49 49 W 7 11 29.85 1011 10 16 0.00 0.00
3:35 pm 15:35 Sunny 57 13.9 39 4.1 52 52 W 3 6 29.86 1011 10 16 0.00 0.00
3:55 pm 15:55 Sunny 57 13.8 40 4.4 53 53 WNW 3 6 29.86 1011 10 16 0.00 0.00
4:15 pm 16:15 Sunny 56 13.5 40 4.6 55 55 Calm 29.85 1011 10 16 0.00 0.00
4:35 pm 16:35 Sunny 56 13.1 41 4.9 58 58 Calm 29.85 1011 10 16 0.00 0.00
4:55 pm 16:55 Sunny 56 13.1 41 4.9 58 58 SSW 3 6 29.85 1011 10 16 0.00 0.00
5:15 pm 17:15 Sunny 55 12.5 39 4.1 57 57 SSW 3 6 29.86 1011 10 16 0.00 0.00
5:35 pm 17:35 Clear 51 10.4 39 4.1 65 65 Calm 29.89 1012 10 16 0.00 0.00
5:55 pm 17:55 Clear 49 9.7 40 4.2 69 69 WSW 3 6 29.89 1012 10 16 0.00 0.00
6:15 pm 18:15 Clear 49 9.2 39 4.1 71 71 WSW 5 7 29.90 1012 10 16 0.00 0.00
6:35 pm 18:35 Clear 47 8.1 38 3.5 73 73 W 5 7 29.91 1013 10 16 0.00 0.00
6:55 pm 18:55 Clear 46 8 39 3.7 75 75 Calm 29.91 1013 10 16 0.00 0.00
7:15 pm 19:15 Clear 45 7.1 37 2.9 75 75 SSW 5 7 29.91 1013 10 16 0.00 0.00
7:35 pm 19:35 Partly Cloudy 44 6.8 38 3.4 79 79 NW 6 9 29.94 1014 10 16 0.00 0.00
7:55 pm 19:55 Cloudy with Light Rain 47 8.5 43 6.2 86 86 N 26 43 30.01 1016 10 16 0.00 0.00
8:15 pm 20:15 Partly Cloudy 46 8 40 4.7 80 80 N 24 39 30.03 1017 10 16 0.00 0.00
8:35 pm 20:35 Partly Cloudy 46 7.7 39 4 78 78 N 18 30 30.05 1018 10 16 0.00 0.00
8:55 pm 20:55 Partly Cloudy 45 7.4 38 3.5 77 77 N 20 31 30.09 1019 10 16 0.00 0.00
9:15 pm 21:15 Partly Cloudy 46 7.6 37 2.9 72 72 N 15 24 30.08 1019 10 16 0.00 0.00
9:35 pm 21:35 Cloudy 46 7.6 36 2.3 69 69 N 15 24 30.09 1019 10 16 0.00 0.00
9:55 pm 21:55 Cloudy 45 7.2 35 1.7 68 68 N 12 19 30.11 1020 10 16 0.00 0.00
10:15 pm 22:15 Cloudy 45 7 34 1.1 66 66 NNW 13 20 30.11 1020 10 16 0.00 0.00
10:35 pm 22:35 Cloudy 45 7.2 33 0.8 64 64 NNW 9 15 30.11 1020 10 16 0.00 0.00
10:55 pm 22:55 Cloudy 43 6.2 33 0.3 66 66 NW 10 17 30.14 1021 10 16 0.00 0.00
11:15 pm 23:15 Cloudy 43 6.2 32 0.1 65 65 NW 10 17 30.14 1021 10 16 0.00 0.00
11:35 pm 23:35 Partly Cloudy 44 6.5 31 -0.3 62 62 NW 15 24 30.14 1021 10 16 0.00 0.00
11:55 pm 23:55 Partly Cloudy 43 6 31 -0.3 64 64 NNW 14 22 30.17 1022 10 16 0.00 0.00

Powered by AerisWeather